Satellite: FO-70
Catalog number: 37380
Epoch time:      12018.38985263
Element set:    0083
Inclination:      071.9747 deg
RA of node:       285.0401 deg
Eccentricity:    0.0019270
Arg of perigee:   240.0754 deg
Mean anomaly:     119.8494 deg
Mean motion:   14.76656006 rev/day
Decay rate:       4.83e-06 rev/day^2
Epoch rev:           01372
Checksum:              306

/EX
SB KEPS @ AMSAT  $ORB12019.W
Orbital Elements  12019.WEATHER

HR AMSAT ORBITAL ELEMENTS FOR WEATHER SATELLITES
FROM WA5QGD FORT WORTH,TX January 19, 2012
Send SUBSCRIBE KEPS/UNSUBSCRIBE KEPS to majordomo@amsat.org only
BID: ORB12019.W
TO ALL RADIO AMATEURS BT

Satellite: NOAA-10
Catalog number: 16969
Epoch time:      12019.51695955
Element set:     785
Inclination:      098.5997 deg
RA of node:       051.1169 deg
Eccentricity:    0.0011782
Arg of perigee:   316.2725 deg
Mean anomaly:     043.7531 deg
Mean motion:   14.27521379 rev/day
Decay rate:        7.4e-07 rev/day^2
Epoch rev:           31851
Checksum:              329

Satellite: NOAA-11
Catalog number: 19531
Epoch time:      12019.30388665
Element set:     785
Inclination:      098.7398 deg
RA of node:       107.5782 deg
Eccentricity:    0.0010491
Arg of perigee:   293.5672 deg
Mean anomaly:     066.4426 deg
Mean motion:   14.14949347 rev/day
Decay rate:       -4.0e-08 rev/day^2
Epoch rev:           20331
Checksum:              316

Satellite: NOAA-12
Catalog number: 21263
Epoch time:      12019.82084288
Element set:     275
Inclination:      098.7388 deg
RA of node:       042.1105 deg
Eccentricity:    0.0012895
Arg of perigee:   275.4173 deg
Mean anomaly:     084.6026 deg
Mean motion:   14.25472529 rev/day
Decay rate:        7.4e-07 rev/day^2
Epoch rev:            7525
Checksum:              302

Satellite: MET-3/5
Catalog number: 21655
Epoch time:      12019.33991688
Element set:     314
Inclination:      082.5558 deg
RA of node:       258.0476 deg
Eccentricity:    0.0013199
Arg of perigee:   342.1734 deg
Mean anomaly:     017.8930 deg
Mean motion:   13.17032721 rev/day
Decay rate:        5.1e-07 rev/day^2
Epoch rev:           98217
Checksum:              306

Satellite: MET-2/21
Catalog number: 22782
Epoch time:      12018.89239785
Element set:     314
Inclination:      082.5496 deg
RA of node:       151.7529 deg
Eccentricity:    0.0021731
Arg of perigee:   211.2041 deg
Mean anomaly:     148.7819 deg
Mean motion:   13.83674784 rev/day
Decay rate:        7.3e-07 rev/day^2
Epoch rev:           92838
Checksum:              326

Satellite: OKEAN-4
Catalog number: 23317
Epoch time:      12018.90540078
Element set:     780
Inclination:      082.5397 deg
RA of node:       171.6548 deg
Eccentricity:    0.0022866
Arg of perigee:   125.0736 deg
Mean anomaly:     235.2629 deg
Mean motion:   14.83532053 rev/day
Decay rate:      1.034e-05 rev/day^2
Epoch rev:           93252
Checksum:              295

Satellite: NOAA-14
Catalog number: 23455
Epoch time:      12019.51739959
Element set:     757
Inclination:      098.8374 deg
RA of node:       104.8551 deg
Eccentricity:    0.0009970
Arg of perigee:   029.4058 deg
Mean anomaly:     330.7675 deg
Mean motion:   14.13871120 rev/day
Decay rate:        2.4e-07 rev/day^2
Epoch rev:           87964
Checksum:              330

Satellite: NOAA-15
Catalog number: 25338
Epoch time:      12019.43332366
Element set:     106
Inclination:      098.6767 deg
RA of node:       007.8641 deg
Eccentricity:    0.0010592
Arg of perigee:   179.5719 deg
Mean anomaly:     180.5503 deg
Mean motion:   14.25020720 rev/day
Decay rate:       1.69e-06 rev/day^2
Epoch rev:           71152
Checksum:              289

Satellite: RESURS
Catalog number: 25394
Epoch time:      12019.83709279
Element set:     993
Inclination:      098.3086 deg
RA of node:       016.0243 deg
Eccentricity:    0.0001401
Arg of perigee:   356.7292 deg
Mean anomaly:     003.3878 deg
Mean motion:   14.24269488 rev/day
Decay rate:        2.3e-07 rev/day^2
Epoch rev:           70314
Checksum:              299

Satellite: FENGYUN1
Catalog number: 25730
Epoch time:      12019.91639754
Element set:     518
Inclination:      098.8341 deg
RA of node:       341.6137 deg
Eccentricity:    0.0021493
Arg of perigee:   068.5421 deg
Mean anomaly:     291.8038 deg
Mean motion:   14.09166951 rev/day
Decay rate:       9.09e-06 rev/day^2
Epoch rev:           65358
Checksum:              319

Satellite: OKEAN-0
Catalog number: 25860
Epoch time:      12019.86257599
Element set:     523
Inclination:      097.9144 deg
RA of node:       345.7540 deg
Eccentricity:    0.0001646
Arg of perigee:   041.6643 deg
Mean anomaly:     318.4692 deg
Mean motion:   14.74057411 rev/day
Decay rate:       4.21e-06 rev/day^2
Epoch rev:           67257
Checksum:              309

Satellite: NOAA-16
Catalog number: 26536
Epoch time:      12019.45591406
Element set:     590
Inclination:      099.1163 deg
RA of node:       059.1245 deg
Eccentricity:    0.0011091
Arg of perigee:   142.6908 deg
Mean anomaly:     217.5064 deg
Mean motion:   14.12696717 rev/day
Decay rate:       1.28e-06 rev/day^2
Epoch rev:           58389
Checksum:              310

